Location: *
(37.5724°S, 58.0067°E)
Time: 10:54:17
(UTC+00:00)

USA 229 DEB - Pass Details

Date: 07 December 2021
Orbit: 943 x 1269 km, 63.4° (Epoch: 14 January)

Event Time Altitude Azimuth Distance (km) Brightness Sun altitude
Rises 22:17:45 0° 206° (SSW) 3,958 7.1 -21.5°
Reaches altitude 10° 22:23:01 10° 174° (S) 2,905 6.8 -20.9°
Maximum altitude 22:25:08 11° 155° (SSE) 2,759 7.0 -20.7°
Drops below altitude 10° 22:27:13 10° 137° (SE) 2,832 7.1 -20.5°
Sets 22:32:07 0° 104° (ESE) 3,706 7.3 -19.9°
